When you browse on this site, cookies collect data to enhance your experience and personalize the content and advertising you see.
Visit our Privacy Policy to learn more. By continuing to use the site, you agree to this use of cookies and data.

Tiempo cada hora Bujumbura

Hoy, 4 Agosto, Martes

Tiempo Temperatura Precipitaciones Viento Presión Humedad
00:00 +24°C° 0 mm 1 mps 694 mmHg 48%
01:00 +23°C° 0 mm 1 mps 694 mmHg 49%
02:00 +23°C° 0 mm 1 mps 694 mmHg 50%
03:00 +23°C° 0 mm 1 mps 694 mmHg 50%
04:00 +23°C° 0 mm 1 mps 694 mmHg 50%
05:00 +23°C° 0 mm 1 mps 694 mmHg 49%
06:00 +24°C° 0 mm 1 mps 694 mmHg 48%
07:00 +25°C° 0 mm 1 mps 695 mmHg 46%
08:00 +27°C° 0 mm 1 mps 696 mmHg 44%
09:00 +29°C° 0 mm 1 mps 695 mmHg 41%
10:00 +30°C° 0 mm 1 mps 695 mmHg 39%
11:00 +32°C° 0 mm 2 mps 695 mmHg 37%
12:00 +32°C° 0 mm 2 mps 694 mmHg 38%
13:00 +32°C° 0 mm 2 mps 693 mmHg 39%
14:00 +33°C° 0 mm 3 mps 692 mmHg 39%
15:00 +31°C° 0 mm 3 mps 692 mmHg 41%
16:00 +30°C° 0 mm 3 mps 691 mmHg 43%
17:00 +30°C° 0 mm 2 mps 691 mmHg 45%
18:00 +28°C° 0 mm 2 mps 691 mmHg 50%
19:00 +27°C° 0 mm 2 mps 692 mmHg 56%
20:00 +25°C° 0 mm 1 mps 692 mmHg 61%
21:00 +25°C° 0 mm 1 mps 693 mmHg 60%
22:00 +25°C° 0 mm 1 mps 693 mmHg 59%
23:00 +24°C° 0 mm 1 mps 694 mmHg 59%

Mañana, 5 Agosto, Miércoles

Tiempo Temperatura Precipitaciones Viento Presión Humedad
00:00 +24°C° 0 mm 1 mps 693 mmHg 59%
01:00 +24°C° 0 mm 1 mps 693 mmHg 59%
02:00 +24°C° 0 mm 1 mps 693 mmHg 58%
03:00 +24°C° 0 mm 1 mps 693 mmHg 59%
04:00 +24°C° 0 mm 1 mps 693 mmHg 59%
05:00 +24°C° 0 mm 1 mps 693 mmHg 59%
06:00 +25°C° 0 mm 1 mps 693 mmHg 54%
07:00 +27°C° 0 mm 1 mps 694 mmHg 50%
08:00 +28°C° 0 mm 1 mps 695 mmHg 46%
09:00 +28°C° 0 mm 2 mps 694 mmHg 47%
10:00 +28°C° 0 mm 3 mps 694 mmHg 49%
11:00 +28°C° 0 mm 3 mps 694 mmHg 50%
12:00 +30°C° 0 mm 3 mps 694 mmHg 46%
13:00 +31°C° 0 mm 3 mps 693 mmHg 42%
14:00 +34°C° 0 mm 3 mps 693 mmHg 37%
15:00 +33°C° 0 mm 3 mps 692 mmHg 40%
16:00 +31°C° 0 mm 3 mps 692 mmHg 42%
17:00 +30°C° 0 mm 3 mps 691 mmHg 45%
18:00 +28°C° 0 mm 2 mps 692 mmHg 49%
19:00 +27°C° 0 mm 2 mps 692 mmHg 54%
20:00 +25°C° 0 mm 1 mps 693 mmHg 58%
21:00 +25°C° 0 mm 1 mps 693 mmHg 57%
22:00 +25°C° 0 mm 1 mps 693 mmHg 56%
23:00 +24°C° 0 mm 1 mps 693 mmHg 55%

Pasado mañana, 6 Agosto, Jueves

Tiempo Temperatura Precipitaciones Viento Presión Humedad
00:00 +24°C° 0 mm 1 mps 693 mmHg 55%
01:00 +24°C° 0 mm 1 mps 693 mmHg 55%
02:00 +24°C° 0 mm 1 mps 693 mmHg 55%
03:00 +24°C° 0 mm 1 mps 692 mmHg 56%
04:00 +23°C° 0 mm 2 mps 692 mmHg 56%
05:00 +23°C° 0 mm 2 mps 692 mmHg 57%
06:00 +25°C° 0 mm 2 mps 693 mmHg 52%
07:00 +27°C° 0 mm 2 mps 694 mmHg 47%
08:00 +29°C° 0 mm 2 mps 694 mmHg 41%
09:00 +30°C° 0 mm 2 mps 694 mmHg 39%
10:00 +31°C° 0 mm 2 mps 694 mmHg 37%
11:00 +34°C° 0 mm 2 mps 694 mmHg 34%
12:00 +33°C° 0 mm 3 mps 693 mmHg 35%
13:00 +33°C° 0 mm 3 mps 692 mmHg 36%
14:00 +33°C° 0 mm 4 mps 691 mmHg 37%
15:00 +33°C° 0 mm 4 mps 691 mmHg 38%
16:00 +33°C° 0 mm 4 mps 691 mmHg 40%
17:00 +32°C° 0 mm 4 mps 691 mmHg 42%
18:00 +30°C° 0 mm 3 mps 691 mmHg 46%
19:00 +28°C° 0 mm 3 mps 692 mmHg 51%
20:00 +26°C° 0 mm 2 mps 693 mmHg 55%
21:00 +26°C° 0 mm 2 mps 693 mmHg 54%
22:00 +26°C° 0 mm 1 mps 693 mmHg 53%
23:00 +25°C° 0 mm 1 mps 693 mmHg 53%

7 Agosto, Viernes

Tiempo Temperatura Precipitaciones Viento Presión Humedad
00:00 +25°C° 0 mm 1 mps 693 mmHg 53%
01:00 +25°C° 0 mm 1 mps 693 mmHg 54%
02:00 +25°C° 0 mm 2 mps 693 mmHg 54%
03:00 +24°C° 0 mm 2 mps 693 mmHg 54%
04:00 +24°C° 0 mm 2 mps 692 mmHg 54%
05:00 +24°C° 0 mm 2 mps 692 mmHg 53%
06:00 +26°C° 0 mm 2 mps 693 mmHg 49%
07:00 +28°C° 0 mm 2 mps 694 mmHg 44%
08:00 +30°C° 0 mm 2 mps 695 mmHg 40%
09:00 +31°C° 0 mm 2 mps 695 mmHg 38%
10:00 +33°C° 0 mm 3 mps 694 mmHg 36%
11:00 +34°C° 0 mm 3 mps 694 mmHg 34%
12:00 +34°C° 0 mm 3 mps 694 mmHg 36%
13:00 +33°C° 0 mm 3 mps 693 mmHg 38%
14:00 +33°C° 0 mm 3 mps 692 mmHg 40%
15:00 +33°C° 0 mm 3 mps 692 mmHg 40%
16:00 +33°C° 0 mm 3 mps 692 mmHg 40%
17:00 +33°C° 0 mm 3 mps 692 mmHg 40%
18:00 +30°C° 0 mm 3 mps 692 mmHg 44%
19:00 +28°C° 0 mm 2 mps 693 mmHg 49%
20:00 +26°C° 0 mm 2 mps 693 mmHg 54%
21:00 +26°C° 0 mm 1 mps 693 mmHg 53%
22:00 +26°C° 0 mm 1 mps 694 mmHg 52%
23:00 +26°C° 0 mm 1 mps 694 mmHg 51%

8 Agosto, Sábado

Tiempo Temperatura Precipitaciones Viento Presión Humedad
00:00 +25°C° 0 mm 1 mps 694 mmHg 51%
01:00 +25°C° 0 mm 1 mps 693 mmHg 52%
02:00 +25°C° 0 mm 1 mps 693 mmHg 53%
03:00 +24°C° 0 mm 1 mps 693 mmHg 53%
04:00 +24°C° 0 mm 2 mps 693 mmHg 53%
05:00 +24°C° 0 mm 2 mps 693 mmHg 53%
06:00 +26°C° 0 mm 2 mps 693 mmHg 49%
07:00 +27°C° 0 mm 2 mps 694 mmHg 45%
08:00 +29°C° 0 mm 2 mps 695 mmHg 42%
09:00 +30°C° 0 mm 2 mps 695 mmHg 40%
10:00 +31°C° 0 mm 3 mps 695 mmHg 39%
11:00 +31°C° 0 mm 3 mps 695 mmHg 38%
12:00 +33°C° 0 mm 3 mps 694 mmHg 38%
13:00 +33°C° 0 mm 3 mps 693 mmHg 38%
14:00 +33°C° 0 mm 3 mps 692 mmHg 38%
15:00 +33°C° 0 mm 3 mps 692 mmHg 39%
16:00 +31°C° 0 mm 3 mps 691 mmHg 41%
17:00 +30°C° 0 mm 3 mps 691 mmHg 43%
18:00 +29°C° 0 mm 3 mps 692 mmHg 46%
19:00 +28°C° 0 mm 2 mps 692 mmHg 49%
20:00 +27°C° 0 mm 2 mps 693 mmHg 52%
21:00 +26°C° 0 mm 2 mps 693 mmHg 53%
22:00 +26°C° 0 mm 1 mps 693 mmHg 54%
23:00 +25°C° 0 mm 1 mps 693 mmHg 55%

9 Agosto, Domingo

Tiempo Temperatura Precipitaciones Viento Presión Humedad
00:00 +25°C° 0 mm 1 mps 693 mmHg 54%
01:00 +25°C° 0 mm 1 mps 692 mmHg 54%
02:00 +25°C° 0 mm 1 mps 692 mmHg 53%
03:00 +25°C° 0 mm 1 mps 692 mmHg 55%
04:00 +24°C° 0 mm 1 mps 692 mmHg 56%
05:00 +24°C° 0 mm 1 mps 692 mmHg 58%
06:00 +26°C° 0 mm 1 mps 693 mmHg 53%
07:00 +27°C° 0 mm 2 mps 694 mmHg 49%
08:00 +29°C° 0 mm 2 mps 694 mmHg 44%
09:00 +29°C° 0 mm 2 mps 694 mmHg 43%
10:00 +30°C° 0 mm 3 mps 694 mmHg 43%
11:00 +32°C° 0 mm 4 mps 693 mmHg 42%
12:00 +32°C° 0 mm 4 mps 693 mmHg 41%
13:00 +33°C° 0 mm 5 mps 692 mmHg 40%
14:00 +34°C° 0 mm 5 mps 691 mmHg 39%
15:00 +33°C° 0 mm 5 mps 691 mmHg 40%
16:00 +32°C° 0 mm 5 mps 691 mmHg 42%
17:00 +30°C° 0 mm 4 mps 690 mmHg 44%
18:00 +29°C° 0 mm 4 mps 691 mmHg 47%
19:00 +28°C° 0 mm 3 mps 691 mmHg 51%
20:00 +26°C° 0 mm 3 mps 692 mmHg 55%
21:00 +26°C° 0 mm 2 mps 692 mmHg 55%
22:00 +26°C° 0 mm 2 mps 692 mmHg 55%
23:00 +25°C° 0 mm 1 mps 693 mmHg 54%
Mostrar más